| time (UTC) | temp C | wind direction | speed KPH | gust KPH | rain 1hr cm | rain 24hr cm | rain mn cm | humidity % | barometer mb |
| 20260905234520 | 30 | 55 | 0.0 | 1.6 | 0.00 | 0.00 | 0.00 | 75 | 1008.6 |
| 20260905233031 | 30 | 67 | 0.0 | 1.6 | 0.00 | 0.00 | 0.00 | 73 | 1008.5 |
| 20260905231519 | 30 | 62 | 0.0 | 0.0 | 0.00 | 0.00 | 0.00 | 70 | 1008.6 |
| 20260905230120 | 31 | 62 | 0.0 | 1.6 | 0.00 | 0.00 | 0.00 | 69 | 1008.7 |
| 20260905224608 | 31 | 41 | 0.0 | 1.6 | 0.00 | 0.00 | 0.00 | 66 | 1008.7 |
| 20260905223032 | 31 | 49 | 0.0 | 0.0 | 0.00 | 0.00 | 0.00 | 65 | 1008.4 |
| 20260905221558 | 32 | 69 | 0.0 | 3.2 | 0.00 | 0.00 | 0.00 | 61 | 1008.4 |
| 20260905220017 | 34 | 216 | 0.0 | 6.4 | 0.00 | 0.00 | 0.00 | 55 | 1008.3 |
| 20260905214506 | 34 | 210 | 0.0 | 0.0 | 0.00 | 0.00 | 0.00 | 52 | 1008.2 |
| 20260905213011 | 34 | 220 | 0.0 | 4.8 | 0.00 | 0.00 | 0.00 | 52 | 1008.4 |
| 20260905211518 | 35 | 208 | 0.0 | 1.6 | 0.00 | 0.00 | 0.00 | 51 | 1008.5 |
| 20260905210048 | 35 | 226 | 0.0 | 12.9 | 0.00 | 0.00 | 0.00 | 51 | 1008.7 |
| 20260905204528 | 34 | 185 | 0.0 | 8.0 | 0.00 | 0.00 | 0.00 | 52 | 1008.8 |
| 20260905203009 | 35 | 92 | 0.0 | 4.8 | 0.00 | 0.00 | 0.00 | 50 | 1008.8 |
| 20260905201551 | 35 | 221 | 0.0 | 0.0 | 0.00 | 0.00 | 0.00 | 49 | 1009.0 |
| 20260905200109 | 34 | 174 | 0.0 | 0.0 | 0.00 | 0.00 | 0.00 | 51 | 1009.1 |
| 20260905194608 | 34 | 239 | 0.0 | 9.7 | 0.00 | 0.00 | 0.00 | 49 | 1009.4 |
| 20260905193012 | 35 | 249 | 0.0 | 0.0 | 0.00 | 0.00 | 0.00 | 49 | 1009.6 |
| 20260905191609 | 33 | 220 | 0.0 | 3.2 | 0.00 | 0.00 | 0.00 | 51 | 1009.8 |
| 20260905190033 | 34 | 164 | 0.0 | 8.0 | 0.00 | 0.00 | 0.00 | 51 | 1010.1 |
| 20260905184535 | 33 | 149 | 0.0 | 4.8 | 0.00 | 0.00 | 0.00 | 50 | 1010.2 |
| 20260905183027 | 33 | 212 | 0.0 | 8.0 | 0.00 | 0.00 | 0.00 | 50 | 1010.3 |
| 20260905181553 | 34 | 62 | 0.0 | 3.2 | 0.00 | 0.00 | 0.00 | 49 | 1010.4 |
| 20260905180008 | 33 | 224 | 0.0 | 3.2 | 0.00 | 0.00 | 0.00 | 51 | 1010.4 |
| 20260905173008 | 32 | 222 | 0.0 | 3.2 | 0.00 | 0.00 | 0.00 | 52 | 1010.8 |
| 20260905171541 | 32 | 228 | 0.0 | 3.2 | 0.00 | 0.00 | 0.00 | 53 | 1011.1 |
| 20260905170006 | 32 | 55 | 0.0 | 1.6 | 0.00 | 0.00 | 0.00 | 52 | 1011.3 |
| 20260905164524 | 30 | 56 | 0.0 | 4.8 | 0.00 | 0.00 | 0.00 | 56 | 1011.5 |
| 20260905163006 | 31 | 216 | 0.0 | 3.2 | 0.00 | 0.00 | 0.00 | 51 | 1011.7 |
| 20260905161614 | 30 | 109 | 0.0 | 0.0 | 0.00 | 0.00 | 0.00 | 57 | 1011.8 |
| 20260905160016 | 30 | 76 | 0.0 | 0.0 | 0.00 | 0.00 | 0.00 | 55 | 1011.7 |
| 20260905154514 | 30 | 107 | 0.0 | 0.0 | 0.00 | 0.00 | 0.00 | 58 | 1011.7 |
| 20260905153014 | 29 | 62 | 0.0 | 0.0 | 0.00 | 0.00 | 0.00 | 57 | 1011.7 |
| 20260905151558 | 29 | 52 | 0.0 | 4.8 | 0.00 | 0.00 | 0.00 | 55 | 1011.4 |
| 20260905150111 | 28 | 70 | 0.0 | 9.7 | 0.00 | 0.00 | 0.00 | 58 | 1011.4 |
| 20260905144531 | 28 | 63 | 0.0 | 1.6 | 0.00 | 0.00 | 0.00 | 62 | 1011.6 |
| 20260905143028 | 28 | 63 | 0.0 | 4.8 | 0.00 | 0.00 | 0.00 | 62 | 1011.7 |
| 20260905141533 | 27 | 52 | 0.0 | 0.0 | 0.00 | 0.00 | 0.00 | 63 | 1012.0 |
| 20260905140115 | 26 | 60 | 0.0 | 4.8 | 0.00 | 0.00 | 0.00 | 66 | 1012.3 |
| 20260905134607 | 27 | 114 | 0.0 | 3.2 | 0.00 | 0.00 | 0.00 | 66 | 1012.6 |
| 20260905133024 | 25 | 95 | 0.0 | 8.0 | 0.00 | 0.00 | 0.00 | 70 | 1012.7 |
| 20260905131604 | 24 | 85 | 0.0 | 1.6 | 0.00 | 0.00 | 0.00 | 74 | 1013.0 |
| 20260905130115 | 24 | 89 | 0.0 | 1.6 | 0.00 | 0.00 | 0.00 | 75 | 1013.1 |
| 20260905124615 | 22 | 37 | 0.0 | 6.4 | 0.00 | 0.00 | 0.00 | 79 | 1013.2 |
| 20260905123113 | 22 | 64 | 0.0 | 0.0 | 0.00 | 0.00 | 0.00 | 82 | 1013.6 |
| 20260905121558 | 22 | 91 | 0.0 | 0.0 | 0.00 | 0.00 | 0.00 | 83 | 1013.7 |
| 20260905120008 | 23 | 97 | 0.0 | 0.0 | 0.00 | 0.00 | 0.00 | 81 | 1013.4 |
| 20260905114600 | 22 | 146 | 0.0 | 0.0 | 0.00 | 0.00 | 0.00 | 81 | 1013.2 |
| 20260905113051 | 22 | 103 | 0.0 | 0.0 | 0.00 | 0.00 | 0.00 | 80 | 1013.1 |
| 20260905111650 | 22 | 122 | 0.0 | 6.4 | 0.00 | 0.00 | 0.00 | 82 | 1013.0 |
| 20260905110053 | 23 | 86 | 0.0 | 14.5 | 0.00 | 0.00 | 0.00 | 85 | 1013.0 |
| 20260905104551 | 22 | 168 | 0.0 | 6.4 | 0.00 | 0.00 | 0.00 | 93 | 1012.1 |
| 20260905103057 | 22 | 99 | 0.0 | 0.0 | 0.00 | 0.00 | 0.00 | 93 | 1010.3 |
| 20260905101651 | 22 | 100 | 0.0 | 0.0 | 0.00 | 0.00 | 0.00 | 92 | 1010.6 |
| 20260905100114 | 22 | 105 | 0.0 | 0.0 | 0.00 | 0.00 | 0.00 | 94 | 1011.0 |
| 20260905094550 | 22 | 100 | 0.0 | 0.0 | 0.00 | 0.00 | 0.00 | 92 | 1011.3 |
| 20260905093044 | 22 | 102 | 0.0 | 0.0 | 0.00 | 0.00 | 0.00 | 92 | 1011.2 |
| 20260905091502 | 22 | 97 | 0.0 | 0.0 | 0.00 | 0.00 | 0.00 | 92 | 1010.8 |
| 20260905090003 | 22 | 102 | 0.0 | 0.0 | 0.00 | 0.00 | 0.00 | 91 | 1010.5 |
| 20260905084502 | 22 | 102 | 0.0 | 0.0 | 0.00 | 0.00 | 0.00 | 91 | 1010.5 |
| 20260905083001 | 22 | 102 | 0.0 | 0.0 | 0.00 | 0.00 | 0.00 | 91 | 1010.6 |
| 20260905081502 | 22 | 97 | 0.0 | 0.0 | 0.00 | 0.00 | 0.00 | 91 | 1010.4 |
| 20260905080101 | 22 | 64 | 0.0 | 0.0 | 0.00 | 0.00 | 0.00 | 91 | 1010.2 |
| 20260905074559 | 22 | 64 | 0.0 | 0.0 | 0.00 | 0.00 | 0.00 | 91 | 1010.0 |
| 20260905073100 | 22 | 64 | 0.0 | 0.0 | 0.00 | 0.00 | 0.00 | 91 | 1010.0 |
| 20260905071503 | 22 | 108 | 0.0 | 0.0 | 0.00 | 0.00 | 0.00 | 90 | 1010.1 |
| 20260905070003 | 22 | 108 | 0.0 | 0.0 | 0.00 | 0.00 | 0.00 | 90 | 1010.3 |
| 20260905064617 | 22 | 106 | 0.0 | 0.0 | 0.00 | 0.00 | 0.00 | 91 | 1010.6 |
| 20260905063058 | 22 | 92 | 0.0 | 0.0 | 0.00 | 0.00 | 0.00 | 91 | 1010.7 |
| 20260905061656 | 22 | 92 | 0.0 | 0.0 | 0.00 | 0.00 | 0.00 | 90 | 1010.9 |
| 20260905060059 | 22 | 109 | 0.0 | 0.0 | 0.00 | 0.00 | 0.00 | 91 | 1011.0 |
| 20260905054656 | 22 | 103 | 0.0 | 0.0 | 0.00 | 0.00 | 0.00 | 90 | 1011.2 |
| 20260905053052 | 23 | 103 | 0.0 | 0.0 | 0.00 | 0.00 | 0.00 | 91 | 1011.4 |
| 20260905051651 | 22 | 83 | 0.0 | 0.0 | 0.00 | 0.00 | 0.00 | 90 | 1011.5 |
| 20260905050051 | 23 | 83 | 0.0 | 0.0 | 0.00 | 0.00 | 0.00 | 89 | 1011.5 |
| 20260905044604 | 23 | 100 | 0.0 | 0.0 | 0.00 | 0.00 | 0.00 | 91 | 1011.6 |
| 20260905043049 | 23 | 96 | 0.0 | 0.0 | 0.00 | 0.00 | 0.00 | 89 | 1011.7 |
| 20260905041647 | 23 | 96 | 0.0 | 0.0 | 0.00 | 0.00 | 0.00 | 89 | 1011.7 |
| 20260905040059 | 23 | 60 | 0.0 | 0.0 | 0.00 | 0.00 | 0.00 | 88 | 1011.6 |
| 20260905034550 | 24 | 60 | 0.0 | 0.0 | 0.00 | 0.00 | 0.00 | 88 | 1011.7 |
| 20260905033044 | 23 | 73 | 0.0 | 0.0 | 0.00 | 0.00 | 0.00 | 88 | 1011.6 |
| 20260905031502 | 24 | 73 | 0.0 | 0.0 | 0.00 | 0.00 | 0.00 | 88 | 1011.7 |
| 20260905030005 | 24 | 102 | 0.0 | 0.0 | 0.00 | 0.00 | 0.00 | 88 | 1011.5 |
| 20260905024501 | 24 | 99 | 0.0 | 0.0 | 0.00 | 0.00 | 0.00 | 87 | 1011.5 |
| 20260905023100 | 25 | 88 | 0.0 | 0.0 | 0.00 | 0.00 | 0.00 | 87 | 1011.5 |
| 20260905021701 | 25 | 88 | 0.0 | 0.0 | 0.00 | 0.00 | 0.00 | 86 | 1011.6 |
| 20260905020059 | 25 | 83 | 0.0 | 0.0 | 0.00 | 0.00 | 0.00 | 85 | 1011.6 |
| 20260905014557 | 25 | 81 | 0.0 | 0.0 | 0.00 | 0.00 | 0.00 | 83 | 1011.5 |
| 20260905013102 | 25 | 142 | 0.0 | 0.0 | 0.00 | 0.00 | 0.00 | 83 | 1011.5 |
| 20260905011657 | 26 | 142 | 0.0 | 0.0 | 0.00 | 0.00 | 0.00 | 83 | 1011.3 |
| 20260905010104 | 26 | 70 | 0.0 | 0.0 | 0.00 | 0.00 | 0.00 | 82 | 1011.1 |
| 20260905004556 | 26 | 81 | 0.0 | 0.0 | 0.00 | 0.00 | 0.00 | 81 | 1011.1 |
| 20260905003054 | 27 | 116 | 0.0 | 1.6 | 0.00 | 0.00 | 0.00 | 79 | 1010.8 |
| 20260905001654 | 27 | 114 | 0.0 | 0.0 | 0.00 | 0.00 | 0.00 | 78 | 1010.8 |
| 20260905000051 | 28 | 113 | 0.0 | 1.6 | 0.00 | 0.00 | 0.00 | 74 | 1010.5 |